Location: Trois-Rivi�res
(46.3500°N, 72.5500°W)
Time: 23:26:37
(UTC-04:00)

Cosmos 1544 - Visible Passes

Search period start: 27 September 2016 00:00
Search period end: 07 October 2016 00:00
Orbit: 482 x 500 km, 82.5° (Epoch: 26 September)

Date Brightness Start Highest point End Pass type
(mag) Time Alt. Az. Time Alt. Az. Time Alt. Az.
27 Sep 4.8 19:06:45 10° ESE 19:08:48 14° E 19:10:51 10° NE visible
27 Sep 4.3 20:40:03 10° SSW 20:43:37 42° WNW 20:47:14 10° N visible
28 Sep 3.5 20:17:10 10° SSW 20:20:52 65° W 20:24:37 10° N visible
29 Sep 6.1 06:06:57 10° NNE 06:09:54 22° ENE 06:12:50 10° SE visible
29 Sep 3.0 19:54:25 10° S 19:58:09 82° E 20:01:55 10° N visible
30 Sep 6.4 05:44:45 10° NNE 05:47:03 15° ENE 05:49:20 10° ESE visible
30 Sep 3.2 19:31:49 10° S 19:35:27 53° E 19:39:08 10° NNE visible
30 Sep 6.5 21:09:20 10° W 21:11:01 13° WNW 21:12:42 10° NW visible
01 Oct 6.8 05:23:09 10° NE 05:24:09 11° ENE 05:25:08 10° E visible
01 Oct 3.7 19:09:22 10° SSE 19:12:47 35° E 19:16:14 10° NNE visible
01 Oct 6.1 20:45:32 10° WSW 20:48:07 18° WNW 20:50:44 10° NNW visible
02 Oct 5.5 20:22:08 10° SW 20:25:16 25° WNW 20:28:26 10° NNW visible
03 Oct 4.0 06:10:40 10° N 06:14:19 55° ENE 06:17:56 10° SSE visible
03 Oct 4.8 19:58:59 10° SW 20:02:27 36° WNW 20:05:57 10° N visible
04 Oct 4.9 05:48:04 10° N 05:51:32 36° ENE 05:54:58 10° SE visible
04 Oct 4.0 19:36:00 10° SSW 19:39:40 54° WNW 19:43:21 10° N visible
05 Oct 5.6 05:25:35 10° NNE 05:28:43 25° ENE 05:31:48 10° SE visible
05 Oct 3.2 19:13:09 10° S 19:16:54 83° WNW 19:20:40 10° N visible
06 Oct 6.2 05:03:15 10° NNE 05:05:51 18° ENE 05:08:24 10° ESE visible
06 Oct 3.1 18:50:29 10° S 18:54:10 64° E 18:57:53 10° NNE visible
06 Oct 6.8 20:28:53 10° W 20:29:49 11° WNW 20:30:46 10° NW visible
